Location: Blessy
(50.6164°N, 2.3318°E)
Time: 19:20:08
(UTC+00:00)

Daily predictions for brighter satellites

Satellite Brightness Start Highest point End
(mag) Time Altitude Azimuth Time Altitude Azimuth Time Altitude Azimuth
BREEZE-M DEB (TANK) 4.5 19:52:38 10° W 19:56:22 77° S 20:07:57 10° ESE
Cosmos 1844 4.2 19:52:34 10° S 19:57:50 39° ESE 20:03:05 10° NE
BREEZE-M DEB (TANK) 4.2 19:53:41 10° W 19:57:53 50° S 20:04:46 10° ESE
Landsat 7 4.3 19:53:52 10° SE 19:58:24 47° ENE 20:02:59 10° N
Cosmos 968 Rocket 3.6 19:53:32 10° S 19:58:39 55° ESE 20:03:46 10° NNE
ATLAS 5 CENTAUR R/B 2.5 19:53:28 10° NW 19:58:46 65° NE 20:05:06 10° SE
ATLAS 2AS CENTAUR R/B 4.3 19:56:16 10° NW 20:03:06 33° NNE 20:09:32 10° ENE
BREEZE M DEB (TANK) 4.0 20:00:25 10° WSW 20:04:09 64° SSE 20:16:17 10° ENE
Intercosmos 25 Rocket 4.3 19:57:39 10° N 20:05:06 89° E 20:09:33 10° S
Cosmos 1486 Rocket 4.2 20:01:02 10° S 20:06:11 53° ESE 20:11:23 10° NNE
Cosmos 1500 Rocket 4.1 20:03:18 10° NNW 20:07:40 61° W 20:11:58 10° S
Cosmos 1833 Rocket 3.9 20:03:22 10° NNW 20:08:22 31° NE 20:13:20 10° ESE
IGS 5A 3.6 20:05:29 10° SSE 20:09:34 62° ENE 20:13:41 10° N
Cosmos 2221 3.6 20:07:44 10° SSW 20:11:55 49° WNW 20:16:10 10° N
BREEZE-M R/B 3.1 20:10:30 10° SSW 20:12:35 21° SSE 20:14:34 10° E
S3M 4.1 20:06:28 10° S 20:12:44 63° E 20:18:59 10° NNE
USA 186 4.2 20:12:46 10° SW 20:14:09 14° W 20:15:31 10° WNW
Cosmos 1666 Rocket 4.0 20:11:23 10° N 20:15:38 45° ENE 20:19:51 10° SSE
USA 215 4.1 20:13:33 10° ENE 20:19:51 52° N 20:26:08 10° WNW
Cosmos 1933 3.5 20:19:06 10° S 20:23:02 53° E 20:26:58 10° NNE
USA 305 3.5 20:19:04 10° WNW 20:23:16 56° N 20:27:29 10° E
USA 245 3.1 20:23:48 14° SE 20:25:18 28° ENE 20:27:19 10° N
Cosmos 1242 Rocket 2.8 20:25:05 10° S 20:28:31 46° E 20:31:58 10° NNE
OBJECT-B 3.5 20:26:25 10° SW 20:28:49 19° W 20:31:14 10° NW
Cosmos 1553 Rocket 4.3 20:25:16 10° SSW 20:31:23 72° WNW 20:37:39 10° N
BREEZE M DEB (TANK) 2.1 20:25:50 10° W 20:31:53 76° S 20:34:07 12° E
Cosmos 1437 Rocket 3.0 20:28:38 10° SSW 20:32:30 72° WNW 20:36:28 10° N
Cosmos 773 Rocket 4.4 20:27:16 10° NNW 20:32:30 53° ENE 20:37:01 14° SE
Resurs 01 Rocket 2.0 20:30:43 10° S 20:35:09 66° WSW 20:39:36 10° NNW
Sich 1 3.3 20:33:41 10° NNW 20:37:59 69° W 20:42:18 10° S
Spot 2 Rocket 3.7 20:34:12 12° SSE 20:38:45 59° ENE 20:43:43 10° N
COSMOS 2406 3.8 20:33:33 10° NNW 20:39:01 45° NE 20:43:43 14° ESE
SJ 16-02 3.3 20:38:19 12° ESE 20:39:25 12° E 20:41:16 10° ENE
Meteor 1-20 Rocket 4.4 20:35:22 10° NNW 20:41:02 77° W 20:46:33 10° S
Cosmos 2082 Rocket 3.5 20:36:42 10° NNW 20:41:36 29° NE 20:46:28 10° ESE
USA 306 3.4 20:38:13 10° WNW 20:42:28 60° NNE 20:46:41 10° E
CZ-4C R/B 3.1 20:37:09 10° NW 20:44:03 68° NE 20:51:18 14° ESE
Cosmos 1500 3.7 20:41:03 10° N 20:44:41 43° ENE 20:47:10 18° SE
Gbstr 26 Del rocket 4.4 20:38:12 10° WSW 20:46:09 88° N 20:52:57 10° ENE
Cosmos 1782 3.0 20:43:16 10° S 20:47:06 53° E 20:51:00 10° NNE
ERS-1 Rocket 3.3 20:50:52 16° SE 20:54:42 55° ENE 20:59:37 10° N
SPOT 5 3.3 20:52:52 17° SE 20:56:41 56° ENE 21:01:50 10° N
Cosmos 1503 Rocket 3.9 20:51:48 10° SSW 20:56:58 79° ESE 21:02:12 10° NNE
ERBS 4.4 20:55:47 10° WNW 20:58:39 26° N 21:01:31 10° NE
Intercosmos 24 4.5 20:55:37 10° SSW 20:59:17 52° WNW 21:02:48 10° N
SOZ 4.1 20:57:17 10° WSW 20:59:50 80° SSE 21:02:11 10° ENE
USA 290 3.7 20:57:29 10° NW 21:00:27 32° WSW 21:02:58 13° SSW
Cosmos 1271 Rocket 4.3 21:00:22 18° ESE 21:01:34 20° E 21:04:32 10° NE
Cosmos 1151 Rocket 3.0 20:58:11 10° S 21:02:32 79° E 21:06:56 10° NNE
Cosmos 1602 4.1 20:59:14 10° NNW 21:03:04 62° W 21:06:20 14° S
CREW DRAGON DEMO-1 DEB 2.5 21:00:27 10° WNW 21:03:07 75° N 21:04:38 22° E
Terra 2.3 21:02:23 19° SE 21:05:29 47° ENE 21:10:04 10° N
USA 307 3.2 21:03:33 10° WNW 21:07:50 68° NNE 21:11:25 14° E
Cosmos 2278 Rocket 2.9 21:05:44 17° SSE 21:09:10 33° ESE 21:14:10 10° NE
CZ-2C R/B 3.9 21:07:05 10° N 21:11:32 72° WNW 21:16:02 10° SSW
X-37B 2.0 21:17:30 10° WSW 21:20:07 23° SSW 21:20:09 23° SSW
Cosmos 1515 Rocket 3.7 21:17:35 22° SSE 21:20:17 56° E 21:24:36 10° NNE
SWARM C 4.4 21:17:52 10° N 21:21:12 87° W 21:22:52 27° S
SWARM A 4.2 21:17:59 10° N 21:21:19 84° W 21:23:01 26° S
USA 308 3.0 21:17:02 10° WNW 21:21:20 75° NNE 21:24:24 19° ESE
Cosmos 1844 Rocket 3.7 21:16:01 10° SW 21:21:25 49° NW 21:26:52 10° NNE
SPOT 1/Viking Rocket 4.2 21:16:46 12° S 21:21:29 51° W 21:26:33 10° NNW
Cosmos 2084 3.7 21:17:53 11° SSW 21:21:36 43° SE 21:25:38 10° NE
Cosmos 1536 4.2 21:18:44 10° N 21:22:13 27° ENE 21:23:48 21° ESE
ARIANE 5 R/B 2.9 21:20:39 18° S 21:23:46 60° WSW 21:28:05 10° NNW
JB-3 4.2 21:21:17 10° NNE 21:25:14 85° ESE 21:27:56 19° SSW
Cosmos 1437 2.4 21:25:46 28° SSW 21:27:06 77° WNW 21:29:58 10° N
Cosmos 1633 Rocket 4.0 21:23:38 10° NNW 21:27:48 43° W 21:31:23 13° SSW
Cosmos 1354 Rocket 4.3 21:23:06 10° SSW 21:28:19 71° WNW 21:33:36 10° NNE
Cosmos 2154 Rocket 4.4 21:23:08 10° N 21:29:19 50° ENE 21:33:02 23° SE
Cosmos 1812 2.6 21:31:31 26° S 21:33:38 80° E 21:37:30 10° NNE
Cosmos 1470 Rocket 4.0 21:32:41 10° NNW 21:37:06 60° W 21:39:57 21° S
Cosmos 2184 Rocket 4.0 21:31:10 10° N 21:37:27 78° E 21:41:19 24° SSE
Meteor 1-5 Rocket 4.2 21:33:11 10° NNW 21:38:39 78° W 21:42:00 23° S
Cosmos 1328 Rocket 4.2 21:36:50 10° SSW 21:41:07 55° WNW 21:45:28 10° N
NOSS 3-4 (A) 3.9 21:34:58 10° NW 21:41:49 78° NE 21:47:02 22° SE
NOSS 3-4 (C) 3.9 21:35:05 10° NW 21:41:56 78° NE 21:47:09 22° SE
ATLAS 5 CENTAUR R/B 3.4 21:38:17 10° WNW 21:43:20 34° WSW 21:47:13 18° S
Cosmos 2074 Rocket 4.0 21:39:04 10° N 21:45:25 89° E 21:49:23 25° S
Cosmos 1666 2.8 21:47:05 10° NNW 21:50:49 67° W 21:52:12 35° SSW
Cosmos 1933 Rocket 3.8 21:47:22 10° NNW 21:51:41 63° W 21:53:49 28° SSW
NOSS 3-3 (A) 3.9 21:46:42 10° SW 21:52:33 87° SE 21:59:20 10° NE
NOSS 3-3 (C) 3.9 21:46:49 10° SW 21:52:40 87° SE 21:59:26 10° NE
Cosmos 1833 Rocket 2.9 21:47:08 10° NW 21:52:43 63° WSW 21:55:42 28° S
Nadezhda 1 Rocket 4.1 21:51:52 27° SSE 21:55:20 59° E 22:01:28 10° NNE
ATLAS 2AS CENTAUR R/B 3.1 21:47:59 10° NW 21:55:29 64° NE 22:00:32 20° ESE
Meteor 2-12 Rocket 4.4 21:49:38 10° N 21:55:46 81° E 21:59:01 29° SSE
Cosmos 1743 3.8 21:52:31 10° N 21:56:00 31° ENE 21:56:52 28° E
BREEZE-M DEB (TANK) 2.9 21:57:01 10° W 21:57:58 23° WSW 21:57:58 23° WSW
Cosmos 1538 Rocket 4.4 21:56:02 10° NNW 22:01:19 59° WSW 22:03:56 29° S
BREEZE-M DEB (TANK) 3.3 21:53:36 10° W 22:02:08 75° NNW 22:04:41 12° ENE
USA 215 3.6 21:55:58 10° E 22:02:24 63° NNE 22:08:51 10° WNW
USA 305 2.8 21:59:07 10° WNW 22:03:23 72° SSW 22:04:41 43° SE
Iridium 4 Rocket 4.0 22:01:47 21° SSW 22:05:43 69° W 22:11:39 10° N
Cosmos 1610 Rocket 4.4 22:01:18 10° N 22:07:30 86° E 22:10:38 31° SSE
Cosmos 158 Rocket 3.9 22:08:46 10° NNW 22:13:39 71° WSW 22:15:28 38° S
Cosmos 1733 Rocket 3.9 22:10:52 10° N 22:14:55 37° ENE 22:16:02 31° ESE
SJ 16-02 1.3 22:15:14 32° SSW 22:17:17 86° WNW 22:21:46 10° NNE
Cosmos 2228 Rocket 3.0 22:17:34 39° SSW 22:19:13 85° W 22:23:43 10° N
Cosmos 1680 Rocket 3.6 22:13:58 10° NNW 22:19:19 75° ENE 22:21:27 37° SE
Cosmos 2341 Rocket 4.2 22:13:49 10° N 22:20:11 62° ENE 22:23:08 32° SE
Meteor 1-27 Rocket 3.7 22:18:37 32° S 22:21:30 80° E 22:27:26 10° NNE
USA 306 3.0 22:18:16 10° WNW 22:22:28 58° SSW 22:23:05 51° S
COSMOS 2406 4.1 22:18:04 10° NW 22:23:16 38° WSW 22:25:47 25° SSW
Cosmos 1818 4.3 22:18:57 10° NW 22:24:18 49° NE 22:27:40 22° ESE
Cosmos 1937 Rocket 4.4 22:24:06 29° ESE 22:24:42 29° E 22:29:08 10° NE
Cosmos 2082 Rocket 2.3 22:20:33 10° NW 22:26:08 65° WSW 22:28:19 37° S
H-2A R/B 4.5 22:27:52 10° N 22:31:53 44° WNW 22:34:16 21° SW
CZ-4C R/B 3.6 22:25:51 10° NW 22:32:37 42° WSW 22:36:28 27° S
Gbstr 26 Del rocket 4.1 22:26:16 10° W 22:33:48 86° N 22:39:59 10° E
ERBS 3.8 22:32:18 10° NW 22:35:23 34° NNE 22:37:05 21° ENE
Cosmos 1271 Rocket 3.8 22:35:27 26° SW 22:37:15 42° WNW 22:41:06 10° N
Cosmos 2218 Rocket 4.3 22:33:14 10° N 22:39:25 57° ENE 22:42:06 33° SE
Terra 3.4 22:41:15 18° SW 22:43:27 26° W 22:47:26 10° NW
Okean 1 3.6 22:46:34 49° ESE 22:46:45 50° E 22:50:38 10° NNE
USA 307 3.4 22:43:40 10° WNW 22:47:31 43° SW 22:47:31 43° SW
Cosmos 1340 Rocket 3.0 22:44:59 10° NNW 22:49:03 62° W 22:49:40 54° SW
Cosmos 2278 Rocket 2.9 22:47:33 10° SW 22:53:04 51° NW 22:58:37 10° NNE
Spot 4 3.8 22:53:27 49° S 22:54:46 78° WSW 22:59:40 10° NNW
Cosmos 1544 3.7 22:51:32 10° NNW 22:54:58 42° W 22:55:12 42° WSW
Cosmos 1515 3.5 22:55:28 72° ESE 22:55:32 72° E 22:59:19 10° NNE
Cosmos 1862 Rocket 3.6 22:57:00 54° SE 22:57:28 58° E 23:01:44 10° NNE
Cosmos 1536 4.0 22:55:02 10° NNW 22:58:40 32° W 22:59:30 29° WSW
Cosmos 1898 Rocket 3.5 22:57:39 46° S 22:59:12 74° ESE 23:04:33 10° NNE
USA 308 3.8 22:57:12 10° WNW 23:00:30 34° WSW 23:00:30 34° WSW
Cosmos 2369 Rocket 3.2 23:03:27 27° ESE 23:04:05 28° ESE 23:08:48 10° NE
RESURS DK-1 4.2 23:04:09 10° NNW 23:07:43 27° NE 23:09:53 18° E
Gblst 52 Del rocket 4.4 23:01:25 10° WNW 23:08:26 89° S 23:14:29 10° ESE
COBE Rocket 4.1 23:07:04 44° SE 23:08:32 66° ENE 23:13:38 10° N
Meteor 2-9 Rocket 4.2 23:02:48 10° NNW 23:08:41 89° ENE 23:10:35 45° SSE
SL-8 Rocket 4.0 23:02:45 10° NNW 23:09:07 81° W 23:11:34 40° S
Cosmos 1975 2.7 23:07:56 10° N 23:11:56 72° E 23:12:12 68° ESE
Cosmos 2084 Rocket 3.4 23:08:20 10° NW 23:12:37 86° NE 23:13:20 62° SE
Cosmos 1943 Rocket 2.3 23:11:55 46° SSE 23:13:11 56° ESE 23:18:41 10° NE
SAR-Lupe-2 3.9 23:11:19 10° NNE 23:14:31 53° ENE 23:14:31 53° ENE
ALOS 2 2.5 23:16:05 63° S 23:16:45 81° WSW 23:21:10 10° NNW
Cosmos 44 3.6 23:14:19 10° NW 23:19:42 62° SW 23:20:48 50° S
DNEPR-1 R/B 4.2 23:19:56 48° SSE 23:20:54 54° SE 23:25:45 10° NE
Cosmos 1707 Rocket 4.2 23:20:01 37° WSW 23:21:11 47° WNW 23:25:29 10° N
Meteor 2-4 Rocket 4.1 23:20:31 41° SE 23:22:07 54° E 23:27:38 10° NNE
Cosmos 990 Rocket 4.3 23:20:01 33° SW 23:22:19 64° WNW 23:27:33 10° NNE
Okean 1-7 3.5 23:30:15 43° ESE 23:30:32 44° E 23:34:36 10° NNE
Cosmos 372 Rocket 4.0 23:30:36 51° SSE 23:31:28 58° ESE 23:36:28 10° NNE
Cosmos 1743 4.3 23:28:28 10° NW 23:31:38 25° W 23:31:55 24° W
Cosmos 1238 Rocket 4.4 23:28:27 10° NNW 23:34:38 51° W 23:36:39 36° SW
Meteor 1-18 Rocket 4.2 23:33:04 45° SSW 23:34:54 85° WNW 23:40:33 10° NNE
SL-24 R/B - RUBIN 2 4.3 23:31:48 10° NW 23:37:01 44° WSW 23:37:29 43° SW
SeaSat 1 2.9 23:33:05 10° NE 23:37:49 43° ESE 23:38:19 42° SE
Cosmos 2242 Rocket 3.6 23:40:22 58° SE 23:40:50 62° E 23:45:15 10° NNE
USA 215 3.2 23:42:21 33° SE 23:45:26 67° SW 23:51:58 10° WNW
ATLAS 2AS CENTAUR R/B 3.3 23:39:26 10° NW 23:46:11 41° WSW 23:47:56 35° SSW
Cosmos 2297 3.9 23:45:51 33° SW 23:48:26 67° WNW 23:54:08 10° NNE
CZ-2D R/B 4.5 23:49:27 10° ENE 23:51:14 12° E 23:53:01 10° ESE
Cosmos 1733 Rocket 4.4 23:48:59 10° NNW 23:52:34 26° W 23:53:07 25° W
SJ 16-02 4.0 23:53:59 10° W 23:56:35 15° NW 23:59:11 10° N
